Weather History for Torrington, WY

Change the Weather History Date:

Monday, November 5, 2012

  Actual Average Record
Temperature  
Mean Temperature 51 °F 41 °F  
Max Temperature 64 °F 55 °F 78 °F (2001)
Min Temperature 38 °F 27 °F 17 °F (2003)
Degree Days  
Heating Degree Days 14 24  
Month to date heating degree days 90 117  
Since 1 July heating degree days 716 827  
Cooling Degree Days 0 0  
Month to date cooling degree days 0 0  
Year to date cooling degree days 1021 678  
Growing Degree Days 1 (Base 50)    
Moisture  
Dew Point 34 °F    
Average Humidity 56    
Maximum Humidity 79    
Minimum Humidity 32    
Precipitation  
Precipitation 0.00 in 0.02 in 0.16 in (2013)
Month to date precipitation 0.00 0.11  
Year to date precipitation 6.98 13.51  
Sea Level Pressure  
Sea Level Pressure 30.11 in    
Wind  
Wind Speed 6 mph (WNW)    
Max Wind Speed 13 mph    
Max Gust Speed 14 mph    
Visibility 10 miles    
Events      
T = Trace of Precipitation, MM = Missing Value Source: NWS Daily Summary

Daily Weather History Graph

Daily Weather History Graph

Search for Another Location

Airport:

Trip Planner

Search our weather history database for the weather conditions in past years. The results will help you decide how hot, cold, wet, or windy it might be!

Date:

Astronomy

Nov. 05, 2012 Rise Set
Actual Time 6:34 AM MST 4:44 PM MST
Civil Twilight 6:05 AM MST 5:14 PM MST
Nautical Twilight 5:32 AM MST 5:47 PM MST
Astronomical Twilight 4:59 AM MST 6:20 PM MST
Moon 10:25 PM MST (11/5) 11:55 AM MST (11/5)
Length of Visible Light 11h 08m
Length of Day
10h 09m
Waning Gibbous, 62% of the Moon is Illuminated
Nov 5
Waning Gibbous
Nov 6
Last Quarter
Nov 13
New
Nov 20
First Quarter
Nov 28
Full

Hourly Weather History & Observations

Time (MST) Temp. Windchill Dew Point Humidity Pressure Visibility Wind Dir Wind Speed Gust Speed Precip Events Conditions
12:53 AM 46.0 °F 41.0 °F 35.1 °F 66% 30.22 in 10.0 mi WNW 10.4 mph - N/A   Overcast
1:53 AM 43.0 °F 38.8 °F 35.1 °F 74% 30.22 in 10.0 mi WNW 6.9 mph - N/A   Overcast
2:53 AM 43.0 °F 39.5 °F 35.1 °F 74% 30.21 in 10.0 mi WNW 5.8 mph - N/A   Overcast
3:53 AM 43.0 °F 38.2 °F 35.1 °F 74% 30.21 in 10.0 mi WNW 8.1 mph - N/A   Overcast
4:53 AM 43.0 °F - 35.1 °F 74% 30.21 in 10.0 mi Calm Calm - N/A   Overcast
5:53 AM 41.0 °F 39.0 °F 34.0 °F 76% 30.20 in 10.0 mi SW 3.5 mph - N/A   Overcast
6:53 AM 39.0 °F 35.7 °F 34.0 °F 82% 30.21 in 10.0 mi WSW 4.6 mph - N/A   Mostly Cloudy
7:53 AM 41.0 °F 37.1 °F 33.1 °F 73% 30.20 in 10.0 mi West 5.8 mph - N/A   Partly Cloudy
8:53 AM 45.0 °F - 35.1 °F 68% 30.19 in 10.0 mi Calm Calm - N/A   Clear
9:53 AM 52.0 °F - 34.0 °F 50% 30.15 in 10.0 mi WNW 6.9 mph - N/A   Clear
10:53 AM 55.9 °F - 34.0 °F 44% 30.11 in 10.0 mi WNW 5.8 mph - N/A   Clear
11:53 AM 62.1 °F - 32.0 °F 32% 30.05 in 10.0 mi WNW 12.7 mph - N/A   Clear
12:53 PM 62.1 °F - 32.0 °F 32% 30.02 in 10.0 mi WNW 11.5 mph - N/A   Clear
1:53 PM 63.0 °F - 33.1 °F 33% 30.00 in 10.0 mi WNW 9.2 mph - N/A   Clear
2:53 PM 61.0 °F - 36.0 °F 39% 30.01 in 10.0 mi North 5.8 mph - N/A   Clear
3:53 PM 60.1 °F - 35.1 °F 39% 29.99 in 10.0 mi West 4.6 mph - N/A   Clear
4:53 PM 57.0 °F - 34.0 °F 42% 30.01 in 10.0 mi WNW 5.8 mph - N/A   Clear
5:53 PM 55.0 °F - 34.0 °F 45% 30.03 in 10.0 mi WNW 4.6 mph - N/A   Clear
6:53 PM 50.0 °F - 33.1 °F 52% 30.06 in 10.0 mi NW 4.6 mph - N/A   Clear
7:53 PM 48.0 °F - 33.1 °F 56% 30.08 in 10.0 mi WSW 5.8 mph - N/A   Clear
8:53 PM 44.1 °F 40.1 °F 33.1 °F 65% 30.09 in 10.0 mi WNW 6.9 mph - N/A   Clear
9:53 PM 48.9 °F - 32.0 °F 52% 30.05 in 10.0 mi NW 11.5 mph - N/A   Clear
10:53 PM 41.0 °F 36.4 °F 32.0 °F 70% 30.09 in 10.0 mi West 6.9 mph - N/A   Clear
11:53 PM 43.0 °F 40.3 °F 32.0 °F 65% 30.08 in 10.0 mi West 4.6 mph - N/A   Clear